Location: Newark
(52.1031°N, 9.3600°E)
Time: 02:36:52
(UTC+00:00)

Envisat - Pass Details

Date: 24 October 2019
Orbit: 764 x 766 km, 98.1° (Epoch: 20 November)

Event Time Altitude Azimuth Distance (km) Brightness Sun altitude
Rises 16:42:42 0° 149° (SSE) 3,224 6.0 -5.7°
Reaches altitude 10° 16:45:02 10° 146° (SE) 2,302 5.3 -6.0°
Maximum altitude 16:49:59 56° 69° (ENE) 914 3.1 -6.8°
Drops below altitude 10° 16:54:58 10° 352° (N) 2,317 5.5 -7.5°
Sets 16:57:19 0° 349° (NNW) 3,247 6.3 -7.9°
